Regional Weather Roundup
Issued by NWS

Home | Current Version | Previous Version | Text Only | Print | Product List | Glossary Off
Versions: 1 2 3 4 5 6 7 8 9 10 11 12 13 14 15 16 17 18 19 20 21 22 23 24 25 26 27 28 29 30 31 32 33 34 35 36 37 38 39 40 41 42 43 44 45 46 47 48 49 50

000
ASUS43 KFSD 180910
RWRSD

WEATHER ROUNDUP FOR SOUTH DAKOTA
NATIONAL WEATHER SERVICE SIOUX FALLS SD
400 AM CDT THU SEP 18 2014

NOTE: "FAIR" INDICATES FEW OR NO CLOUDS BELOW 12,000 FEET WITH NO
SIGNIFICANT WEATHER AND/OR OBSTRUCTIONS TO VISIBILITY.


SDZ001>005-009-010-012>017-181000-
NORTHWEST AND NORTH CENTRAL SOUTH DAKOTA

CITY           SKY/WX    TMP DP  RH WIND       PRES   REMARKS
BUFFALO          N/A     56  50  80 S7        29.82F
FAITH            N/A     55  47  74 SE14      29.90F
MOBRIDGE       CLEAR     52  48  86 E12       29.92F
$$

SDZ012>016-024>037-041>051-057-063-072>074-181000-
SOUTHWEST AND SOUTH CENTRAL SOUTH DAKOTA

CITY           SKY/WX    TMP DP  RH WIND       PRES   REMARKS
RAPID CTY ARPT CLEAR     51  49  92 CALM      29.91F
PIERRE         CLEAR     51  46  83 E7        29.92F
CUSTER         CLEAR     50  46  86 NW3       30.02F
ELLSWORTH AFB  CLEAR     55  52  88 S6        29.91F
PHILIP         CLEAR     55  52  89 E6        29.90F
PINE RIDGE     PTCLDY    59  55  87 VRB3      29.92F
WINNER         FAIR      60  55  83 SE7       29.93S
$$

SDZ004>011-016>023-039-040-181000-
NORTHEAST SOUTH DAKOTA

CITY           SKY/WX    TMP DP  RH WIND       PRES   REMARKS
ABERDEEN       CLEAR     45  45 100 N3        29.98F
WATERTOWN      CLEAR     50  47  89 CALM      29.99F
SISSETON         N/A     44  43  96 CALM      29.99S
$$

SDZ017-020-022-023-036>040-048>070-181000-
SOUTHEAST SOUTH DAKOTA

CITY           SKY/WX    TMP DP  RH WIND       PRES   REMARKS
SIOUX FALLS    PTCLDY    57  53  86 E5        29.98S
HURON          CLEAR     54  51  90 SE5       29.95F
CHAMBERLAIN    PTCLDY    54  52  93 E5        29.94S
MITCHELL       CLEAR     54  53  97 CALM      29.96S
YANKTON        CLEAR     55  54  94 E7        29.96S
$$

ABBREVIATIONS USED IN REMARKS
   TC - TEMPERATURE IN CELSIUS
  WCI - WIND CHILL INDEX
   HX - HEAT INDEX
  VSB - VISIBILITY



USA.gov is the U.S. government's official web portal to all federal, state and local government web resources and services.